Challis, ID

7:44 PM MDT on April 25, 2017 (GMT -0600)
Challis

Weather History for KLLJ - March, 2013

Change the Weather History Date:

Friday, March 1, 2013

  Actual Average Record
Temperature  
Mean Temperature 42 °F 30 °F  
Max Temperature 54 °F 42 °F 60 °F (1992)
Min Temperature 29 °F 19 °F -16 °F (1922)
Degree Days  
Heating Degree Days 23 35  
Month to date heating degree days 23 35  
Since 1 July heating degree days 5731 6084  
Cooling Degree Days 0 0  
Month to date cooling degree days 0 0  
Year to date cooling degree days 0 0  
Moisture  
Dew Point 28 °F    
Average Humidity 64    
Maximum Humidity 92    
Minimum Humidity 35    
Precipitation  
Precipitation 0.00 in 0.02 in 0.49 in (1970)
Month to date precipitation 0.00 0.02  
Year to date precipitation 0.35 1.15  
Sea Level Pressure  
Sea Level Pressure 30.44 in    
Wind  
Wind Speed 1 mph (NW)    
Max Wind Speed 7 mph    
Max Gust Speed 9 mph    
Visibility 5 miles    
Events Fog    
T = Trace of Precipitation, MM = Missing Value Source: NWS Daily Summary

Daily Weather History Graph

Daily Weather History Graph

Search for Another Location

Airport or City:

Trip Planner

Search our weather history database for the weather conditions in past years. The results will help you decide how hot, cold, wet, or windy it might be!

Date:

Astronomy

Mar. 01, 2013 Rise Set
Actual Time 7:13 AM MST 6:25 PM MST
Civil Twilight 6:44 AM MST 6:54 PM MST
Nautical Twilight 6:10 AM MST 7:28 PM MST
Astronomical Twilight 5:37 AM MST 8:02 PM MST
Moon 11:16 PM MST (3/1) 8:51 AM MST (3/1)
Length of Visible Light 12h 09m
Length of Day
11h 11m
Waning Gibbous, 83% of the Moon is Illuminated
Mar 1
Waning Gibbous
Mar 4
Last Quarter
Mar 11
New
Mar 19
First Quarter
Mar 27
Full

Hourly Weather History & Observations

Time (MST) Temp. Windchill Dew Point Humidity Pressure Visibility Wind Dir Wind Speed Gust Speed Precip Events Conditions
12:55 AM 30.0 °F - 27.0 °F 88% 30.46 in 10.0 mi Calm Calm - N/A   Overcast
1:19 AM 30.2 °F - 26.6 °F 86% 30.41 in 10.0 mi Calm Calm - N/A   Overcast
1:41 AM 30.2 °F - 26.6 °F 86% 30.42 in 10.0 mi Calm Calm - N/A   Overcast
1:55 AM 30.9 °F - 27.0 °F 85% 30.48 in 10.0 mi Calm Calm - N/A   Overcast
2:55 AM 30.0 °F 26.5 °F 27.0 °F 88% 30.48 in 10.0 mi North 3.5 mph - N/A   Overcast
3:55 AM 30.0 °F - 27.0 °F 88% 30.50 in 10.0 mi Calm Calm - N/A   Overcast
5:12 AM 30.2 °F - 28.4 °F 93% 30.43 in 7.0 mi Calm Calm - N/A   Overcast
5:37 AM 30.2 °F - 28.4 °F 93% 30.44 in 1.8 mi Calm Calm - N/A   Overcast
5:55 AM 30.0 °F - 28.0 °F 92% 30.51 in 1.8 mi Calm Calm - N/A   Overcast
5:58 AM 30.2 °F - 28.4 °F 93% 30.44 in 3.0 mi Calm Calm - N/A   Overcast
6:11 AM 30.2 °F 25.4 °F 28.4 °F 93% 30.44 in 1.8 mi NW 4.6 mph - N/A   Overcast
6:29 AM 30.2 °F - 28.4 °F 93% 30.45 in 0.5 mi Calm Calm - N/A Fog Light Freezing Fog
6:46 AM 30.2 °F - 28.4 °F 93% 30.45 in 1.5 mi Calm Calm - N/A   Overcast
6:50 AM 30.2 °F - 28.4 °F 93% 30.45 in 2.0 mi Calm Calm - N/A   Overcast
6:55 AM 30.0 °F - 28.0 °F 92% 30.52 in 2.5 mi Calm Calm - N/A   Overcast
6:58 AM 30.2 °F - 28.4 °F 93% 30.44 in 3.0 mi Calm Calm - N/A   Overcast
7:04 AM 28.4 °F - 26.6 °F 93% 30.44 in 2.5 mi Calm Calm - N/A   Overcast
7:09 AM 30.2 °F - 26.6 °F 86% 30.44 in 1.2 mi Calm Calm - N/A   Overcast
7:21 AM 28.4 °F - 26.6 °F 93% 30.45 in 1.8 mi Calm Calm - N/A   Overcast
7:29 AM 30.2 °F - 26.6 °F 86% 30.45 in 1.8 mi Calm Calm - N/A   Overcast
7:40 AM 28.4 °F - 26.6 °F 93% 30.45 in 2.0 mi Calm Calm - N/A   Overcast
7:48 AM 28.4 °F - 26.6 °F 93% 30.45 in 4.0 mi Calm Calm - N/A   Overcast
7:55 AM 28.9 °F - 27.0 °F 92% 30.51 in 4.0 mi Calm Calm - N/A   Overcast
8:03 AM 30.2 °F - 26.6 °F 86% 30.44 in 1.8 mi Calm Calm - N/A   Overcast
8:19 AM 30.2 °F - 28.4 °F 93% 30.44 in 3.0 mi Calm Calm - N/A   Overcast
8:36 AM 30.2 °F - 28.4 °F 93% 30.43 in 1.8 mi Calm Calm - N/A   Overcast
8:53 AM 30.2 °F - 28.4 °F 93% 30.43 in 0.2 mi Calm Calm - N/A Fog Light Freezing Fog
9:31 AM 30.2 °F 26.7 °F 28.4 °F 93% 30.43 in 0.5 mi North 3.5 mph - N/A Fog Light Freezing Fog
9:50 AM 30.2 °F - 28.4 °F 93% 30.43 in 0.2 mi Calm Calm - N/A Fog Light Freezing Fog
9:55 AM 30.0 °F 26.5 °F 28.0 °F 92% 30.50 in 0.2 mi NNW 3.5 mph - N/A Fog Light Freezing Fog
10:43 AM 32.0 °F - 30.2 °F 93% 30.43 in 0.5 mi Calm Calm - N/A Fog Fog
10:53 AM 32.0 °F - 30.2 °F 93% 30.43 in 1.0 mi Calm Calm - N/A   Mist
10:55 AM 32.0 °F - 30.0 °F 92% 30.50 in 0.8 mi Calm Calm - N/A   Mist
11:09 AM 32.0 °F - 30.2 °F 93% 30.43 in 1.8 mi Calm Calm - N/A   Overcast
11:14 AM 32.0 °F - 30.2 °F 93% 30.43 in 3.0 mi Calm Calm - N/A   Overcast
11:55 AM 36.0 °F - 33.1 °F 89% 30.48 in 10.0 mi Calm Calm - N/A   Mostly Cloudy
12:09 PM 37.4 °F - 32.0 °F 81% 30.42 in 10.0 mi Calm Calm - N/A   Scattered Clouds
12:55 PM 43.0 °F - 33.1 °F 68% 30.43 in 10.0 mi Calm Calm - N/A   Clear
1:55 PM 48.0 °F - 32.0 °F 54% 30.38 in 10.0 mi Calm Calm - N/A   Clear
3:55 PM 54.0 °F - 28.0 °F 37% 30.35 in 10.0 mi South 3.5 mph - N/A   Clear
4:55 PM 53.1 °F - 27.0 °F 37% 30.35 in 10.0 mi SSE 3.5 mph - N/A   Clear
5:55 PM 48.0 °F - 27.0 °F 44% 30.38 in 10.0 mi West 3.5 mph - N/A   Clear
6:55 PM 43.0 °F 40.3 °F 27.0 °F 53% 30.40 in 10.0 mi South 4.6 mph - N/A   Clear
7:55 PM 41.0 °F - 24.1 °F 51% 30.43 in 10.0 mi Calm Calm - N/A   Clear
8:55 PM 37.0 °F - 25.0 °F 62% 30.46 in 10.0 mi Calm Calm - N/A   Clear
9:55 PM 33.1 °F - 24.1 °F 70% 30.48 in 10.0 mi Calm Calm - N/A   Clear
10:55 PM 34.0 °F - 24.1 °F 67% 30.48 in 10.0 mi Calm Calm - N/A   Clear
11:55 PM 33.1 °F 30.0 °F 24.1 °F 70% 30.47 in 10.0 mi North 3.5 mph - N/A   Clear